Change the Weather History Date:

Wednesday, January 1, 2014

  Actual Average Record
Temperature  
Mean Temperature 44 °F -  
Max Temperature 45 °F 46 °F - ()
Min Temperature 43 °F 37 °F - ()
Degree Days  
Heating Degree Days 21    
Moisture  
Dew Point 42 °F    
Average Humidity 86    
Maximum Humidity 94    
Minimum Humidity 77    
Precipitation  
Precipitation 0.00 in - - ()
Sea Level Pressure  
Sea Level Pressure 30.27 in    
Wind  
Wind Speed 7 mph ()    
Max Wind Speed 10 mph    
Max Gust Speed -    
Visibility 8.1 miles    
Events      
T = Trace of Precipitation, MM = Missing Value Source: Averaged Metar Reports

Daily Weather History Graph

Daily Weather History Graph

Search for Another Location

Airport or City:

Trip Planner

Search our weather history database for the weather conditions in past years. The results will help you decide how hot, cold, wet, or windy it might be!

Date:

Astronomy

Jan. 01, 2014 Rise Set
Actual Time 7:29 AM EET 4:45 PM EET
Civil Twilight 6:57 AM EET 5:16 PM EET
Nautical Twilight 6:23 AM EET 5:51 PM EET
Astronomical Twilight 5:49 AM EET 6:24 PM EET
Moon 7:00 AM EET (1/1) 5:07 PM EET (1/1)
Length of Visible Light 10h 18m
Length of Day
9h 16m
Waning Crescent, 0% of the Moon is Illuminated
Jan 1
Waning Crescent
Jan 1
New
Jan 8
First Quarter
Jan 16
Full
Jan 24
Last Quarter

Hourly Weather History & Observations

Time (EET) Temp. Dew Point Humidity Pressure Visibility Wind Dir Wind Speed Gust Speed Precip Events Conditions
12:00 AM 44 °F 40 °F 81% 30.31 in 9 mi NNE 8.1 mph - -   Partly Cloudy
1:00 AM 44 °F 40 °F 81% 30.30 in 9 mi NNE 8.1 mph - -   Partly Cloudy
2:00 AM 44 °F 41 °F 83% 30.30 in 9 mi NE 8.1 mph - -   Partly Cloudy
3:00 AM 44 °F 40 °F 81% 30.29 in 9 mi NNE 10.4 mph - -   Partly Cloudy
4:00 AM 44 °F 40 °F 82% 30.27 in 9 mi NE 8.1 mph - -   Partly Cloudy
5:00 AM 44 °F 40 °F 82% 30.27 in 9 mi NE 8.1 mph - -   Partly Cloudy
6:00 AM 44 °F 41 °F 84% 30.27 in 9 mi NE 8.1 mph - -   Partly Cloudy
7:00 AM 44 °F 41 °F 83% 30.28 in 9 mi NE 6.9 mph - -   Partly Cloudy
8:00 AM 44 °F 41 °F 83% 30.28 in 9 mi NE 8.1 mph - -   Partly Cloudy
9:00 AM 44 °F 41 °F 83% 30.29 in 9 mi NE 8.1 mph - -   Partly Cloudy
10:00 AM 44 °F 42 °F 88% 30.29 in 7 mi NE 5.8 mph - -   Overcast
11:00 AM 44 °F 42 °F 88% 30.29 in 7 mi NNE 5.8 mph - -   Mostly Cloudy
12:00 PM 45 °F 42 °F 83% 30.27 in 7 mi NE 6.9 mph - -   Mostly Cloudy
1:00 PM 46 °F 41 °F 77% 30.26 in 9 mi NNE 9.2 mph - -   Mostly Cloudy
2:00 PM 45 °F 42 °F 85% 30.25 in 7 mi NNE 10.4 mph - -   Mostly Cloudy
3:00 PM 45 °F 42 °F 86% 30.25 in 6 mi NNE 10.4 mph - -   Mostly Cloudy
4:00 PM 44 °F 42 °F 92% 30.26 in 5 mi NNE 9.2 mph - -   Mist
5:00 PM 44 °F 43 °F 93% 30.26 in 3 mi NNE 9.2 mph - -   Mist
6:00 PM 44 °F 43 °F 93% 30.26 in 7 mi NNE 8.1 mph - -   Mostly Cloudy
7:00 PM 44 °F 43 °F 94% 30.27 in 9 mi NNE 6.9 mph - -   Partly Cloudy
8:00 PM 44 °F 43 °F 94% 30.27 in 9 mi NE 6.9 mph - -   Partly Cloudy
9:00 PM 45 °F 43 °F 92% 30.26 in 9 mi NE 6.9 mph - -   Partly Cloudy
11:00 PM 44 °F 42 °F 92% 30.26 in 12 mi Calm Calm - -   Clear